NUSAT 2 (BATATA)

Last updated on Thu Jun 22 2017 00:17:34 GMT+0000 (Coordinated Universal Time)

1 41558U 16033C 17172.37195954 .00001263 00000-0 50521-4 0 9996 2 41558 97.4659 251.9432 0013582 358.9034 1.2173 15.26925957 59067

Satellite not in orbit

NUSAT 2 (BATATA)